Find Starlink 31532

NORAD ID: 59349 Int'l Des: 2024-060 Owner: SPXS Country: US Constellation: starlink operational
LEOCIRCULAR

リアルタイム位置

3D地球を読み込み中...

Starlink 31532について

説明を読み込み中...

次回通過

Passes for default location (London). Set your location on the main map for personalized predictions.

高度履歴

Loading altitude history...

軌道要素

1 59349U 24060B 26126.82373585 -.00003329 00000-0 -11158-3 0 9998
2 59349 43.0016 291.5498 0001000 274.0159 86.0579 15.27558453119004
Epoch: May 6, 2026 • Age: 12 hours

現在のステータス

高度 483.8 km
速度 7.63 km/s
衛星直下点 27.26°N, 100°E
打ち上げ日 Mar 31, 2024
運用期間 2 years
タイプ internet

技術仕様

分類 Payload
質量 730.00 kg
乾燥質量 700.00 kg
総質量 730.00 kg
長さ 0.30 m
直径 4.10 m
スパン 29.00 m
形状 Box + pan
製造者 SPXS
バスタイプ Starlink V2M
フェーズステータス In Orbit
所有者/国 SPXS/US

Most Searched